Wind_Speed
36 35 32 28 25 25 25 24 24 22 18 15 15 13 15 18 19 17 13 12 10 9 10 9 9 9 8 7 5 4 4 3 5 5 3 1 1 2 4 6 6 6 6 4 3 3 3 3 2 2 3 5 5 5 6 6 7 8 8 8 8 7 6 5 5 5 4 4 3 3 3 3 3 4 5 6 6 7 7 8 8 8 8 8 8 9
35 32 28 28 27 27 27 27 27 26 20 17 18 16 17 21 21 19 15 12 10 9 9 9 8 8 7 7 6 6 5 4 5 6 5 3 2 1 1 2 2 3 4 4 3 2 2 3 2 2 3 4 4 5 6 6 6 7 7 7 7 7 6 6 5 5 4 4 3 3 2 3 3 3 4 5 6 7 7 8 8 9 9 9 9 10
32 27 26 30 32 32 32 31 30 28 22 19 21 19 19 23 23 21 18 14 11 9 9 10 10 9 8 7 5 4 5 5 6 7 6 3 3 2 2 2 1 1 2 3 3 3 1 2 2 2 2 3 4 5 6 6 6 6 7 7 7 7 7 6 6 5 5 5 5 4 4 4 4 5 5 6 6 7 8 9 10 11 11 11 11 12
27 23 29 35 36 36 35 32 31 30 25 22 22 21 21 23 24 22 18 14 13 10 9 11 12 10 8 6 4 2 3 5 6 8 7 4 4 4 4 4 3 4 4 4 3 4 4 3 2 2 2 2 3 4 5 6 6 7 7 8 8 8 8 7 7 6 7 7 7 7 7 7 7 7 8 8 8 9 10 11 12 13 13 14 14 14
27 24 32 38 38 38 37 33 33 30 25 23 22 22 23 23 23 22 18 16 15 13 12 12 13 11 8 6 3 1 2 4 5 7 7 5 4 5 5 5 6 6 6 6 6 5 6 6 5 4 3 3 3 4 5 6 7 8 8 8 9 9 9 9 9 9 9 9 10 10 10 10 10 10 10 10 11 11 12 12 13 14 15 16 16 16
29 29 36 40 40 40 39 35 33 29 25 24 23 23 23 21 21 23 22 21 20 18 14 11 13 12 9 9 6 2 2 4 5 5 6 4 4 6 5 5 6 6 7 8 7 7 7 7 7 7 6 5 5 5 5 7 8 9 9 9 10 10 10 10 11 11 11 11 12 12 12 12 13 13 13 13 13 13 14 15 15 16 17 18 19 19
31 32 38 42 42 42 40 37 34 29 26 25 24 24 24 22 21 22 22 22 22 18 14 13 15 14 13 12 9 5 5 6 5 4 5 5 4 6 6 5 5 6 7 7 8 8 7 7 8 8 7 7 7 6 7 8 9 11 11 11 12 12 12 12 13 13 14 14 14 14 14 15 15 16 16 16 16 16 17 18 19 19 19 20 21 22
33 34 39 43 45 44 42 39 34 30 27 25 24 25 25 24 24 23 22 22 20 17 17 17 17 18 16 13 8 7 7 6 5 2 3 4 5 7 7 6 5 6 7 7 7 8 9 9 9 8 8 8 8 9 9 10 11 12 12 13 14 14 14 14 15 16 16 17 17 17 17 18 19 19 19 19 19 20 21 22 22 22 22 23 23 24
34 36 39 42 45 45 41 37 34 31 26 23 25 27 26 25 25 24 25 24 22 23 24 21 19 20 18 14 10 10 7 5 4 3 4 3 4 7 8 8 7 7 7 7 7 8 9 10 10 11 10 9 9 10 12 12 12 13 13 14 15 15 16 16 17 18 19 19 19 20 20 21 22 22 22 23 23 23 24 25 25 24 24 24 25 25
38 38 41 43 45 43 39 37 37 33 26 25 30 31 28 28 28 27 28 27 27 29 28 24 20 21 19 16 12 11 7 5 6 6 6 4 4 6 9 10 8 8 7 6 6 7 9 11 12 12 11 11 11 12 12 12 13 15 15 16 16 17 17 17 18 19 20 20 21 22 23 23 24 25 25 26 26 26 26 26 25 25 25 25 26 26
43 43 45 47 46 44 41 41 40 34 28 29 34 34 32 32 31 31 32 31 33 35 31 23 19 21 20 18 14 11 7 7 8 9 8 4 4 6 10 13 10 7 6 6 7 8 11 13 14 13 13 13 14 13 13 13 14 15 16 16 17 17 18 19 20 20 20 21 22 23 24 25 25 25 26 26 26 25 25 25 24 25 25 26 27 27
47 47 49 48 47 47 47 47 45 38 32 34 38 37 35 35 35 35 36 36 37 37 31 23 20 24 20 16 13 10 8 10 11 11 9 4 7 8 11 14 13 10 7 7 8 10 13 14 14 15 15 14 14 14 14 14 14 15 15 16 16 17 19 20 20 20 20 21 22 23 23 23 23 23 24 24 24 23 23 23 23 24 25 26 27 27
49 50 51 50 48 50 51 50 49 42 37 40 42 40 40 39 39 40 39 39 40 37 31 25 24 27 18 13 12 13 12 12 13 14 9 5 8 7 10 14 15 13 9 9 10 11 13 13 12 13 14 14 14 14 15 15 15 15 16 16 17 18 19 19 18 18 19 20 21 21 21 21 21 22 22 23 23 23 22 23 24 25 26 27 28 28
51 51 52 52 51 51 53 52 51 47 42 44 45 44 44 43 42 43 42 41 40 37 33 28 29 30 19 10 10 13 12 12 13 13 8 6 7 6 10 15 15 14 11 10 11 12 12 11 9 10 12 13 14 15 16 16 17 17 17 18 19 19 19 18 18 17 18 20 20 20 19 20 20 20 21 22 23 24 24 24 25 26 26 28 29 29
52 53 51 51 51 50 52 52 51 47 43 44 46 45 46 45 44 43 42 41 39 36 34 32 34 35 22 10 10 14 14 15 15 11 8 10 10 10 14 16 15 15 11 9 11 11 10 9 9 11 13 14 16 17 18 18 19 19 18 19 20 20 19 18 17 17 19 20 19 18 18 19 19 19 20 21 23 25 26 26 26 27 28 28 29 30
54 53 48 50 51 48 50 52 51 49 45 45 48 49 49 47 44 42 41 40 39 37 37 37 38 37 29 20 19 19 19 18 15 10 9 11 11 11 15 16 16 16 10 7 8 8 8 10 11 12 13 15 17 19 20 20 21 21 21 20 20 20 18 16 16 17 19 19 18 18 19 20 20 20 21 22 24 25 26 27 27 29 30 29 29 29
54 52 48 51 53 50 50 53 52 52 49 47 50 51 50 47 44 43 42 41 41 41 41 40 40 38 33 28 24 22 20 19 15 11 10 12 12 12 14 15 16 15 11 8 9 9 9 10 11 12 13 14 15 16 17 18 20 21 21 21 20 18 15 15 17 18 19 18 18 19 20 21 22 22 24 25 26 27 28 29 29 29 30 29 29 29
52 51 50 52 54 52 52 53 52 53 52 51 52 50 49 48 46 45 45 45 45 45 44 42 40 38 36 33 27 21 18 16 13 10 10 12 14 14 14 15 16 17 15 11 11 12 12 11 12 13 13 14 14 14 14 15 17 18 19 19 18 16 15 16 18 18 18 19 19 20 21 22 23 26 28 28 28 28 29 30 32 31 30 29 30 30
50 51 51 52 54 54 54 55 55 55 56 56 54 52 52 52 50 48 47 48 48 47 47 45 43 41 39 36 31 25 19 14 10 9 10 13 15 16 17 18 20 22 18 12 12 14 14 14 15 14 13 14 15 15 14 13 14 13 14 15 15 15 15 16 17 18 20 21 22 22 22 23 26 29 31 30 30 30 30 31 33 33 31 30 30 32
48 50 51 52 54 55 56 59 59 57 58 60 58 58 58 55 52 50 49 48 48 48 48 47 46 45 41 36 33 27 21 16 13 12 14 17 18 19 21 20 19 19 16 12 14 16 15 15 16 16 15 15 16 16 14 12 11 11 12 12 13 14 15 15 17 19 22 23 24 24 25 27 29 30 32 31 31 33 34 34 35 35 33 31 32 32
42 49 52 51 52 55 57 58 58 58 60 61 61 61 60 56 54 52 51 50 49 50 50 49 49 48 43 38 34 28 23 21 18 17 18 21 23 25 23 18 16 15 14 15 17 18 17 16 17 15 14 14 16 15 13 11 10 9 10 11 12 13 15 16 18 21 23 24 25 26 28 30 31 32 33 33 33 36 38 38 38 38 37 36 35 35
37 45 50 51 51 53 55 54 54 56 60 60 61 61 58 55 54 53 53 53 51 52 52 51 51 49 45 41 36 30 25 24 24 24 24 24 25 26 22 18 17 16 16 18 19 19 17 16 16 14 12 12 12 11 10 9 8 8 9 10 12 14 16 18 20 22 24 26 26 27 30 32 32 33 35 35 36 39 40 42 43 41 40 39 38 38
30 36 44 49 51 51 51 51 53 56 59 61 62 62 59 56 55 54 54 53 52 53 53 53 52 50 47 43 38 32 26 24 26 28 27 23 23 22 20 17 16 16 18 20 20 19 17 15 14 13 11 10 9 8 8 8 9 10 11 12 14 16 18 20 22 24 26 27 27 28 31 33 33 35 36 36 38 41 43 45 46 45 44 42 41 41
27 32 39 45 49 50 48 48 53 56 60 62 63 62 61 57 55 55 54 52 54 55 54 53 54 52 48 44 38 33 29 26 27 28 27 24 22 20 19 17 17 17 19 21 21 19 16 14 13 11 9 9 9 9 9 10 11 12 13 14 15 17 20 22 24 27 28 29 29 29 33 35 35 37 38 37 40 42 42 42 44 46 47 45 45 45
31 34 36 40 46 49 48 49 53 57 61 62 61 61 61 57 56 56 53 50 54 58 56 55 56 53 48 44 38 32 30 28 26 26 25 22 20 19 19 19 18 19 20 22 22 20 16 14 12 11 9 9 9 10 10 11 12 13 15 16 17 19 22 25 27 29 30 30 31 32 34 36 36 38 38 38 40 40 40 41 43 46 47 47 48 46
31 32 32 35 43 50 52 52 54 56 58 60 60 60 60 58 57 56 53 53 55 57 56 55 55 50 45 41 36 32 33 31 25 23 23 20 19 19 20 20 20 20 20 22 22 19 16 13 12 11 11 11 11 12 12 12 12 13 15 17 19 22 24 27 28 29 29 31 33 35 36 35 36 38 39 39 40 39 40 44 46 46 45 46 46 42
31 31 28 29 36 45 49 49 49 51 55 57 57 57 57 57 56 56 56 58 57 55 54 51 48 46 43 38 34 33 34 32 25 21 20 19 19 19 19 18 18 17 18 20 21 18 16 14 12 12 13 13 13 14 14 14 13 14 15 17 21 24 26 28 28 29 31 34 36 37 38 37 37 38 40 40 39 38 41 44 44 40 38 39 40 38
33 33 29 25 28 35 41 43 45 47 51 53 53 53 54 55 56 57 58 57 55 55 52 45 42 43 38 32 29 30 29 26 21 20 19 17 17 17 17 17 17 17 18 19 19 17 16 14 12 11 12 12 13 15 15 15 15 16 17 19 23 26 28 29 30 32 34 36 37 37 38 39 37 39 42 42 39 39 42 43 36 29 30 35 37 35
35 34 31 27 25 29 34 38 43 46 49 52 52 52 53 55 56 56 56 54 53 54 49 40 38 37 31 25 26 27 26 23 21 21 19 17 16 18 19 18 18 18 18 18 17 17 16 15 14 14 14 14 14 15 16 16 16 17 19 22 25 27 28 29 30 33 34 35 36 36 37 37 38 40 43 43 42 40 42 44 35 25 26 31 33 32
37 34 31 28 26 27 30 34 40 46 48 52 54 53 54 55 56 55 52 49 48 49 46 40 37 33 26 23 25 25 26 25 23 22 21 19 19 19 19 19 18 18 18 18 18 18 18 17 18 17 18 19 18 18 17 17 17 18 21 24 26 27 28 29 31 32 33 34 36 36 36 36 37 41 44 45 45 41 42 45 37 25 25 30 30 29
38 35 32 31 30 30 30 31 37 45 49 52 55 55 55 55 55 54 51 47 45 45 43 40 38 34 26 24 26 26 27 27 26 26 24 21 20 21 20 20 20 20 20 19 20 21 20 20 20 20 20 22 23 23 22 21 21 22 24 26 28 29 30 30 30 32 33 35 36 36 37 36 37 41 44 47 48 44 42 40 29 21 27 31 28 26
40 37 35 35 35 35 33 31 35 41 47 54 57 57 57 56 55 53 50 48 47 46 44 42 40 35 28 27 29 28 27 27 27 29 28 26 23 23 24 23 22 21 22 23 24 24 22 21 21 22 22 24 26 26 26 25 25 26 27 28 29 30 31 30 31 34 36 38 38 38 39 39 38 40 42 45 47 43 37 32 25 25 33 32 26 24
41 41 39 39 40 39 36 33 33 36 43 54 59 58 57 56 54 51 49 47 47 47 46 44 40 32 26 27 30 29 28 28 27 29 30 30 28 27 27 27 24 22 24 27 27 25 23 23 24 24 25 27 29 30 30 30 30 30 30 30 30 31 32 32 34 37 39 40 40 40 41 41 40 40 41 43 45 38 30 28 27 31 36 34 26 24
41 42 40 40 43 41 36 34 34 37 44 52 57 56 56 56 54 51 49 46 45 46 46 43 37 32 29 31 32 30 30 30 29 30 32 32 32 30 29 29 29 27 28 29 28 26 25 26 27 28 29 31 33 33 34 34 34 34 33 32 32 33 34 36 37 39 40 41 41 41 41 41 41 41 41 43 42 34 28 27 28 31 37 36 29 25
41 42 40 40 43 41 36 35 38 40 43 49 54 56 56 54 52 50 49 47 45 45 43 40 37 35 34 35 35 32 30 29 30 31 33 34 34 32 31 32 32 31 32 32 31 29 29 29 30 32 34 36 37 36 36 36 37 36 36 35 35 35 37 39 40 42 43 43 43 42 41 41 43 44 45 44 39 31 29 31 31 33 38 37 31 29
42 41 41 41 42 41 38 37 39 38 38 45 53 55 54 52 49 47 47 46 44 43 41 39 37 35 35 35 35 33 31 31 30 31 34 36 36 36 34 33 33 34 34 34 33 33 32 32 33 35 36 37 38 39 39 38 38 38 38 38 38 38 40 42 44 45 46 45 44 42 41 42 44 45 47 45 36 30 32 35 33 34 35 33 31 30
42 40 42 42 41 41 39 37 37 35 36 44 53 54 52 51 49 46 45 44 43 41 40 39 37 35 34 35 35 34 34 34 33 33 36 37 37 38 35 32 33 34 33 33 34 33 33 34 36 38 39 40 40 40 39 40 41 40 40 40 40 41 43 44 46 47 47 46 43 42 42 43 44 46 47 43 35 32 35 35 33 33 32 30 29 29
41 40 42 42 40 40 40 38 36 34 34 43 51 54 52 50 48 46 43 42 43 42 40 39 37 35 36 37 37 37 37 37 36 35 36 36 37 37 35 33 33 32 31 31 32 33 35 37 39 40 41 42 42 41 40 41 41 41 42 43 43 43 44 46 48 49 49 46 42 41 43 44 45 46 46 43 39 38 38 34 32 30 28 27 28 28
38 39 40 39 37 40 41 39 37 34 33 38 46 51 51 48 46 45 42 42 44 44 41 40 39 39 41 42 40 40 41 40 38 35 34 34 34 34 34 32 32 31 31 31 33 35 37 39 40 42 43 44 43 42 42 42 42 43 44 46 45 45 48 49 50 51 50 46 42 42 44 45 46 46 46 45 45 44 41 37 34 30 26 26 28 29
39 38 39 38 37 40 42 40 38 35 33 34 39 45 48 48 46 46 45 43 42 41 40 40 40 43 45 44 43 42 42 41 37 35 34 33 32 32 33 32 32 33 33 34 35 38 39 40 42 43 44 44 43 44 44 45 46 48 49 50 49 49 51 51 50 51 49 45 42 43 45 46 46 45 44 44 44 44 43 41 37 32 29 29 30 30
41 39 40 38 37 38 41 41 39 36 33 32 34 39 43 46 47 48 47 44 40 38 39 40 42 44 44 43 43 44 44 43 39 36 35 34 32 31 32 34 35 37 38 38 40 42 43 43 44 44 45 45 45 46 47 49 50 52 53 52 52 53 53 51 50 49 47 44 44 45 47 46 45 43 43 43 44 45 45 42 39 36 34 32 30 29
40 40 40 39 36 35 38 41 40 36 34 33 33 35 39 43 46 47 46 43 40 39 40 41 42 43 42 41 43 45 47 47 45 42 40 38 35 34 35 37 39 41 41 42 43 43 43 43 44 46 47 47 47 48 49 50 51 52 53 53 54 54 52 49 47 45 44 44 46 46 46 45 44 43 43 43 43 45 45 41 37 37 35 29 25 25
40 40 40 38 36 34 36 40 39 36 35 36 35 35 38 40 42 42 42 41 41 42 44 44 44 44 45 46 48 50 50 48 45 45 45 42 40 41 42 41 40 40 41 42 43 43 43 44 45 46 47 48 48 49 50 51 51 51 52 52 51 49 46 44 43 43 43 45 45 44 44 43 43 43 43 43 44 47 47 43 38 36 32 26 23 26
42 40 38 36 35 36 36 39 40 38 36 36 37 38 39 38 37 38 39 39 40 42 45 46 43 40 40 44 47 47 45 43 42 42 42 40 38 39 39 39 38 39 40 42 44 43 43 44 45 46 47 48 50 52 53 52 51 51 50 48 45 43 42 42 42 43 43 44 43 42 42 42 42 42 41 43 46 46 44 41 37 34 31 28 28 30
43 42 39 36 35 38 39 40 42 43 41 39 38 39 40 39 38 39 40 39 39 40 41 42 40 36 34 37 41 41 40 40 39 38 37 35 34 35 35 36 37 39 41 42 43 44 44 46 47 48 48 49 52 55 56 53 50 48 46 44 41 40 40 40 40 40 41 41 40 40 40 40 41 41 40 43 46 43 39 36 33 31 32 32 33 34
41 43 43 38 35 38 42 43 46 47 47 46 44 42 43 43 41 38 38 38 38 39 38 37 37 37 35 34 36 38 39 40 39 37 36 35 35 36 36 37 38 40 41 43 44 45 47 50 51 53 53 53 53 54 52 50 47 46 44 42 40 40 39 39 39 39 39 39 38 38 39 40 40 40 40 42 40 35 31 29 28 28 31 33 35 37
40 43 45 42 38 37 39 42 48 52 50 48 47 46 45 45 43 40 38 38 38 37 36 35 35 35 35 34 33 35 36 37 37 37 37 37 37 38 39 41 42 44 45 47 48 49 51 53 55 56 56 53 50 48 44 42 43 43 42 41 40 40 39 39 38 38 39 38 38 39 39 40 40 40 40 38 33 28 27 27 28 29 31 33 37 39
40 43 46 46 43 41 38 36 41 48 50 47 45 45 44 42 42 41 40 40 40 38 37 37 36 35 35 36 36 36 37 37 38 39 39 40 41 42 43 45 47 49 51 52 53 54 54 54 54 53 51 48 46 43 41 40 41 42 42 41 40 40 39 38 38 38 39 39 39 40 40 41 42 42 40 39 38 37 35 33 31 32 33 36 38 40
39 42 46 46 44 45 45 39 34 36 40 42 41 41 41 41 41 41 40 40 40 38 37 37 37 37 39 40 41 42 41 41 43 44 45 45 45 44 44 44 47 50 53 54 54 52 51 49 47 46 44 42 40 40 40 41 43 43 43 41 40 38 38 38 38 38 38 39 40 41 42 43 43 42 41 40 41 42 41 38 36 38 39 40 40 40
35 39 44 47 45 43 43 43 39 36 37 37 36 36 37 37 38 39 40 39 39 38 37 38 39 40 40 40 41 41 37 35 37 39 41 42 42 42 41 41 42 44 45 46 46 46 45 44 42 41 40 39 39 40 42 43 43 42 41 40 38 38 38 38 38 39 39 40 42 42 43 44 45 44 43 43 43 42 42 41 41 42 42 42 42 42
34 36 38 42 42 39 36 38 42 44 44 43 40 38 36 34 34 37 39 41 41 41 41 41 41 40 40 39 39 37 32 30 30 32 34 36 37 36 36 36 36 35 34 35 37 39 40 40 40 40 39 39 40 41 41 41 40 40 39 39 39 39 39 40 40 40 41 42 43 44 45 46 47 46 46 46 45 43 42 42 42 42 42 42 42 42
Wind_Direction
220 223 226 227 226 224 222 221 220 223 225 211 201 182 144 134 132 132 136 132 131 135 137 129 108 97 95 96 108 105 85 63 40 27 19 352 293 149 127 123 124 121 112 90 56 33 10 355 332 264 244 229 221 217 215 217 214 211 211 214 219 226 234 242 250 256 260 263 266 277 296 310 319 318 312 306 299 296 296 299 301 302 304 305 306 308
220 223 226 225 222 222 220 219 219 221 223 212 202 188 158 145 140 143 154 153 149 149 155 158 135 118 114 111 106 86 53 35 37 25 9 347 303 252 154 108 116 135 140 135 121 75 7 359 3 327 297 278 257 247 241 235 227 219 217 221 227 234 240 242 242 246 253 260 265 271 285 300 308 310 305 297 292 293 296 298 299 299 300 302 304 307
220 221 221 220 217 217 218 217 217 219 222 214 205 195 169 152 148 153 162 166 169 165 167 179 167 141 126 118 104 74 32 11 19 17 3 339 300 280 284 305 313 277 218 183 165 158 195 313 343 336 315 298 281 268 258 249 237 226 223 227 232 235 237 237 238 243 251 257 260 261 264 272 278 281 284 286 287 290 294 296 298 299 300 302 304 306
223 218 214 216 215 216 218 218 217 218 224 219 207 200 182 165 160 159 163 173 179 179 180 190 184 160 136 120 103 58 14 352 359 9 2 340 309 289 288 294 290 280 261 247 236 210 206 229 253 279 294 290 280 275 269 259 247 236 231 233 237 239 239 239 240 242 246 250 251 254 258 263 268 273 278 283 287 289 291 294 298 300 302 303 304 305
224 217 212 214 215 216 218 219 217 217 224 222 209 204 196 181 169 167 175 186 192 197 194 201 200 176 156 147 135 36 338 324 335 1 355 331 308 292 290 292 289 284 266 253 249 240 229 230 235 243 257 264 265 268 271 266 258 250 243 241 243 246 246 246 246 246 246 248 251 255 260 265 270 276 281 284 286 287 289 292 296 299 301 302 302 302
221 214 213 214 214 217 219 219 217 218 223 220 210 206 202 190 181 184 191 195 201 203 196 212 215 189 184 184 169 202 279 287 302 339 343 320 296 288 289 290 295 294 277 257 245 241 241 245 248 246 250 257 259 259 262 264 263 259 255 252 253 254 254 255 255 256 256 257 260 263 268 274 279 282 284 284 285 287 290 293 295 298 300 301 301 302
220 213 212 213 214 217 221 219 216 218 219 214 205 200 199 196 198 204 207 209 212 205 200 228 231 216 210 193 180 213 228 240 269 319 328 313 304 294 290 288 296 302 290 267 247 242 247 253 253 251 252 257 262 262 257 256 257 258 259 259 261 262 263 264 265 267 269 270 273 276 280 282 284 285 285 285 287 289 293 296 299 300 300 300 301 302
222 215 213 212 213 217 220 219 216 218 218 208 196 193 196 202 208 215 221 226 227 222 223 232 235 234 217 190 197 220 209 221 243 283 291 296 312 306 300 293 297 308 297 276 259 251 251 253 251 250 251 256 264 265 257 253 253 255 258 260 264 267 270 272 274 276 278 279 282 284 285 286 286 286 286 286 288 293 297 300 301 301 300 299 299 299
225 219 217 215 215 218 220 219 217 220 218 201 191 194 199 206 213 220 228 232 234 235 236 232 238 243 217 192 213 217 203 224 224 236 248 251 294 308 314 303 295 307 302 281 266 259 256 253 249 246 246 252 261 261 257 255 256 256 257 259 263 267 272 277 280 282 283 284 287 287 288 288 288 289 289 289 292 295 298 299 299 299 298 297 296 296
227 222 219 217 218 221 222 219 218 221 216 196 193 198 202 210 217 223 228 232 235 236 236 230 236 245 222 200 215 215 201 202 195 216 224 216 272 309 326 319 307 305 305 296 283 275 269 258 250 247 246 252 256 256 254 252 255 257 259 262 265 269 272 276 279 282 285 286 288 289 290 290 291 291 292 293 295 297 297 297 296 295 295 294 293 293
225 223 220 217 217 220 220 219 219 221 214 198 197 201 205 213 218 225 229 232 236 237 236 231 235 251 235 205 206 207 180 176 197 214 215 225 304 317 320 322 325 316 300 303 304 296 286 271 257 249 247 252 253 253 253 252 255 259 262 266 269 272 274 276 279 282 285 288 290 291 291 291 292 293 295 297 298 299 298 296 294 294 294 293 292 291
222 222 221 218 216 215 216 217 218 219 212 201 201 203 209 216 220 224 228 230 235 237 238 236 239 252 236 194 197 215 197 197 208 210 212 263 312 311 308 315 326 324 301 298 304 299 293 282 265 251 248 253 253 252 254 255 259 263 266 270 273 275 277 278 282 285 288 291 292 292 293 294 296 298 300 301 302 301 299 297 296 296 295 293 292 290
221 221 222 220 216 213 213 215 216 217 212 205 202 204 210 217 220 224 227 230 235 239 239 237 240 246 231 188 208 229 224 221 214 207 214 286 313 305 297 300 315 321 303 295 302 296 291 288 272 252 248 252 251 252 257 261 266 269 271 275 277 277 279 281 284 288 291 293 293 293 295 297 300 303 303 303 303 301 299 298 297 297 296 294 292 291
221 221 221 222 219 214 213 215 216 217 214 208 204 204 209 215 220 225 228 230 235 239 239 238 242 245 231 191 216 233 237 241 226 215 227 278 287 272 268 279 301 314 301 292 296 291 290 291 276 257 252 252 252 255 261 268 272 275 277 278 279 279 280 283 286 291 293 293 292 293 296 299 302 305 305 304 302 301 299 298 298 297 295 294 293 294
223 222 221 222 222 217 215 217 218 218 218 214 210 209 214 218 223 228 232 234 237 239 240 241 244 247 240 221 241 247 245 247 241 231 240 262 265 259 261 272 292 302 293 282 284 288 297 299 287 275 266 261 261 262 264 269 273 277 278 277 278 280 283 285 288 290 290 290 291 294 296 299 303 305 305 303 300 299 298 298 298 296 295 294 296 298
224 223 221 224 225 220 218 219 220 220 219 218 215 215 219 222 225 231 236 236 237 238 240 242 245 249 250 247 249 247 242 246 248 241 246 264 271 266 267 275 286 289 283 275 280 289 304 306 297 289 279 270 268 268 267 268 270 272 272 272 275 279 283 285 285 284 285 288 292 295 296 299 302 303 301 299 296 294 294 295 295 295 295 297 299 299
223 222 220 225 226 222 220 220 220 221 221 220 219 219 221 223 225 231 236 237 236 238 241 243 245 250 253 252 250 249 249 251 255 256 263 274 278 274 273 275 279 282 280 280 290 295 302 307 302 293 288 283 279 275 272 269 267 267 267 268 272 275 278 277 277 280 284 289 294 296 297 299 300 299 296 293 292 292 293 294 294 294 296 298 298 296
224 223 219 223 226 224 222 221 220 221 222 222 222 221 222 223 225 228 233 235 236 239 243 246 248 250 253 253 253 254 257 258 264 269 273 279 284 287 286 278 276 279 275 277 293 297 299 309 310 301 296 295 292 289 281 270 265 265 264 265 268 267 267 269 274 280 285 291 294 295 296 298 298 296 293 292 292 291 292 294 295 296 296 296 294 292
224 224 220 221 225 224 223 223 220 217 219 222 222 222 222 223 225 227 230 233 235 238 244 248 250 250 251 253 255 257 261 263 265 266 272 281 286 289 287 279 274 274 270 271 289 295 297 307 312 310 302 297 295 295 290 279 270 263 260 260 260 261 264 270 277 283 288 292 293 293 295 296 295 294 294 296 297 294 292 293 293 293 292 293 292 292
224 223 219 219 222 223 222 222 220 215 216 219 219 219 221 222 225 228 230 234 237 240 244 248 251 251 252 254 256 259 262 260 254 256 270 278 280 283 283 275 268 266 263 270 286 291 294 304 309 308 301 294 291 293 296 291 277 262 258 258 260 264 270 275 281 285 289 293 294 296 298 298 297 297 299 301 300 296 293 291 290 289 287 288 288 288
226 225 220 217 220 222 220 221 219 215 215 218 219 218 219 220 222 226 229 232 236 240 244 248 250 252 254 256 258 260 263 262 258 261 268 271 273 276 274 260 249 253 260 269 279 285 292 301 304 302 299 294 289 289 293 293 285 274 269 269 270 273 276 279 282 286 291 295 298 302 304 303 303 303 304 303 298 293 290 287 286 285 283 285 286 284
225 226 221 217 218 220 220 220 219 217 216 219 221 220 219 221 222 224 227 229 232 237 242 246 250 252 255 257 258 260 261 262 264 266 265 263 264 266 261 246 237 242 253 263 271 281 290 297 297 296 301 304 300 295 292 291 294 294 289 284 282 282 283 285 287 291 295 299 303 308 310 311 310 306 304 302 296 292 291 288 286 283 281 283 286 284
225 231 227 220 217 218 219 219 218 217 216 218 221 220 220 222 223 225 228 229 231 236 240 244 248 251 253 254 256 256 257 259 260 260 257 253 253 256 255 248 241 241 250 259 269 279 287 291 294 296 304 316 325 323 310 301 300 300 295 291 289 289 290 291 294 297 300 302 307 312 314 316 314 307 303 302 298 296 296 293 289 287 284 283 285 284
222 232 229 222 218 216 217 218 217 215 215 217 220 220 219 221 222 225 229 232 233 236 239 243 247 250 252 254 253 252 252 254 253 250 251 250 248 249 254 257 252 249 253 261 269 277 280 285 294 299 302 315 329 330 320 308 300 296 291 289 289 290 292 294 297 299 300 304 311 315 314 314 311 307 305 305 303 301 299 296 293 292 289 286 287 286
214 224 226 222 219 216 215 215 214 214 214 216 219 220 219 219 220 223 227 232 235 236 237 242 246 248 250 252 252 248 247 251 253 249 249 249 246 249 257 260 256 253 256 262 268 271 272 278 289 295 297 308 320 323 320 311 301 293 288 286 287 289 293 296 297 298 301 309 315 315 312 310 308 307 306 306 304 301 298 295 294 295 293 291 290 286
212 220 225 225 221 217 214 214 214 214 214 215 217 219 219 219 219 220 223 228 233 236 237 240 243 244 246 250 253 249 245 249 251 245 239 238 241 248 254 255 253 254 256 259 262 264 267 272 283 292 295 302 311 316 316 309 300 294 290 288 289 292 294 296 298 301 306 314 317 314 311 308 307 308 307 306 304 299 295 293 290 291 295 295 292 284
210 215 221 227 225 220 218 218 217 216 217 217 217 218 219 219 219 220 223 227 232 235 238 239 240 244 247 251 254 250 247 248 248 243 239 239 242 247 249 248 247 249 250 252 257 264 269 272 281 290 292 297 305 310 308 302 294 288 287 290 292 292 293 295 298 302 308 314 315 314 311 309 309 310 307 305 303 297 292 293 292 292 297 302 299 289
209 212 213 220 224 220 218 219 219 217 218 219 218 218 219 219 220 222 225 229 232 235 237 237 240 244 247 248 249 250 249 248 247 251 253 249 247 247 245 241 242 245 249 254 261 270 276 281 288 290 288 292 299 302 300 296 290 284 284 289 290 290 292 294 297 302 308 313 314 312 311 310 312 311 306 304 304 299 295 294 295 299 304 307 305 296
212 212 209 211 214 213 214 216 217 217 217 217 217 216 215 217 220 224 227 231 233 235 237 239 240 241 241 242 245 248 248 246 248 257 261 254 247 245 245 248 253 256 261 266 270 273 278 286 294 297 297 300 302 300 294 288 285 287 289 293 292 292 294 295 297 302 308 313 313 311 310 311 312 309 305 304 302 299 294 290 288 296 307 307 302 294
215 213 210 212 210 207 209 211 212 215 217 217 215 213 213 215 220 224 227 230 232 236 237 238 237 234 233 239 243 243 243 243 247 254 255 251 248 249 255 263 267 268 270 271 270 270 276 286 293 299 302 302 302 302 296 287 288 297 302 302 300 299 298 296 297 301 307 311 312 311 311 312 311 309 308 308 306 301 296 290 282 286 307 312 306 295
216 213 212 216 215 209 207 209 210 212 215 217 215 213 214 216 220 222 224 225 227 230 233 235 235 230 226 236 241 240 240 241 245 250 251 249 251 258 265 271 274 277 277 273 269 273 279 285 292 297 298 298 298 300 300 295 295 304 310 310 309 307 302 297 298 303 308 312 312 310 311 312 311 310 311 311 310 306 299 290 279 286 311 317 309 296
215 215 216 223 224 215 207 210 213 211 214 216 215 214 215 218 220 221 222 224 226 229 233 234 233 227 224 233 241 243 244 242 244 248 249 250 253 259 266 272 277 279 278 273 272 276 282 285 289 291 290 291 293 296 298 297 296 300 306 310 311 311 307 301 301 306 311 313 312 311 311 311 311 312 311 310 310 306 296 290 287 295 309 314 304 293
214 216 218 225 227 216 205 209 215 216 219 218 213 212 215 219 221 221 221 223 227 230 233 233 231 226 227 236 243 248 251 251 249 249 251 253 256 258 265 270 272 270 270 270 271 276 281 284 286 286 285 286 290 292 294 294 294 295 300 306 309 310 308 306 307 311 314 314 312 310 310 310 310 310 309 309 311 306 294 294 297 296 302 306 296 288
215 217 219 224 224 214 204 208 217 224 226 219 212 212 215 218 222 223 223 225 227 229 231 230 228 226 229 238 246 251 254 256 256 255 256 258 259 261 265 268 267 266 268 269 272 276 279 281 283 283 283 286 290 291 291 292 293 294 297 304 307 306 307 307 309 314 317 317 314 309 308 308 308 308 308 311 312 304 294 300 305 299 300 301 293 287
215 218 221 224 223 215 206 210 222 228 225 216 212 212 214 218 222 224 225 226 227 227 228 227 226 227 229 236 243 247 251 254 254 254 255 257 259 260 262 265 267 269 272 273 275 276 277 279 280 281 284 288 290 291 289 289 292 293 296 302 305 306 307 309 310 312 315 316 313 308 305 306 308 309 309 311 308 299 295 302 304 298 297 297 292 289
215 218 223 225 224 217 209 213 224 229 222 215 213 212 213 216 218 221 224 227 226 225 225 225 225 226 229 234 240 243 246 248 248 248 249 252 254 256 258 262 265 269 272 273 274 274 276 277 278 281 284 286 288 289 288 288 290 292 296 300 304 305 307 309 311 312 313 312 310 305 303 305 308 309 310 309 304 296 298 302 300 296 294 292 289 290
212 216 221 224 224 219 212 215 225 229 224 218 213 211 213 215 216 219 224 226 224 222 222 223 225 227 230 235 239 241 244 246 245 244 245 247 251 254 256 259 263 265 268 270 271 272 273 275 278 282 284 285 287 289 289 289 290 291 294 299 303 304 305 307 310 312 312 309 304 301 300 303 306 307 307 305 301 298 301 302 298 295 292 288 287 292
206 212 218 220 221 219 216 218 225 229 227 220 214 213 215 216 218 220 224 226 223 220 222 225 227 231 234 237 239 239 240 243 244 242 243 245 249 252 254 257 260 263 265 266 267 269 270 273 277 280 282 284 288 290 290 290 289 289 292 298 301 302 303 306 308 310 309 305 300 297 298 301 303 304 304 303 302 303 304 302 298 294 288 285 288 293
202 209 215 216 217 217 217 219 223 227 228 223 219 218 217 218 221 222 223 225 223 220 225 228 230 234 234 232 233 235 238 240 241 241 242 244 247 250 252 255 258 259 261 262 263 266 269 273 276 278 281 284 288 289 289 289 288 288 291 296 298 299 301 303 305 306 306 302 298 296 297 299 301 302 302 302 302 303 304 304 301 295 288 285 289 294
202 207 212 213 214 216 217 218 221 226 229 226 224 223 220 221 224 223 221 224 225 224 228 231 233 237 238 236 236 238 239 239 239 241 242 243 244 246 248 251 255 257 259 260 263 266 270 273 275 278 281 283 285 287 289 289 290 291 293 295 296 297 299 300 301 302 302 298 295 295 296 298 299 299 299 300 301 302 304 306 304 299 295 294 294 296
204 208 212 212 212 216 219 219 220 224 228 227 227 227 225 224 224 222 220 224 228 232 234 234 235 239 243 246 246 243 241 241 240 241 242 243 244 246 248 251 254 257 261 264 266 269 272 274 277 279 281 282 285 288 290 291 292 293 294 294 295 296 297 296 296 297 295 292 293 294 295 295 296 297 298 299 300 301 303 305 304 301 300 299 296 294
204 207 213 212 209 213 220 222 222 225 230 229 228 229 229 228 228 226 224 227 232 237 239 241 241 240 242 245 246 243 241 240 240 240 240 240 243 246 248 251 254 259 265 268 269 271 274 276 278 280 281 284 287 290 291 292 293 293 292 292 293 294 293 292 292 291 289 290 292 293 293 294 295 296 297 298 301 302 303 303 301 297 297 296 293 293
209 204 211 213 207 205 214 221 222 222 224 226 227 228 230 231 232 232 233 234 237 240 244 246 247 246 244 244 244 244 243 242 244 246 245 246 249 250 250 252 255 260 263 265 266 269 271 273 276 279 282 286 288 290 291 292 292 292 290 289 289 289 288 288 288 288 287 289 290 290 291 293 293 295 297 299 301 300 298 299 297 291 288 287 290 300
221 209 209 210 204 200 206 214 218 219 217 217 220 224 227 229 232 234 235 236 236 239 242 245 249 251 249 245 244 245 244 244 249 251 249 248 249 249 249 252 255 257 260 262 265 268 270 273 277 281 285 287 289 291 292 291 291 290 288 285 283 283 284 285 286 286 286 287 289 289 291 291 292 294 297 299 299 297 296 297 297 288 280 279 289 301
233 222 216 210 202 199 203 209 215 217 217 216 217 220 221 223 228 233 236 238 239 239 240 244 250 255 254 248 245 246 248 249 251 250 247 246 245 245 248 251 255 258 261 264 267 270 272 275 279 282 285 288 290 291 290 288 287 286 284 281 280 282 283 285 286 287 287 287 288 288 289 290 291 294 297 298 299 297 295 298 300 292 282 280 288 297
240 234 228 221 210 202 203 210 215 218 218 219 221 223 223 224 226 229 235 239 241 242 242 245 250 254 255 253 250 250 253 256 255 253 251 249 248 249 251 253 255 260 264 266 268 271 273 276 279 282 284 286 288 289 287 284 281 281 280 279 280 281 283 284 286 286 286 286 287 287 288 290 292 294 298 299 297 294 291 294 299 297 289 285 287 292
244 240 235 232 226 213 204 207 214 218 219 220 221 223 226 228 226 224 227 230 231 233 235 235 236 239 242 244 246 248 251 254 255 254 253 252 253 254 257 260 262 264 266 267 269 272 276 278 280 282 282 282 283 285 285 282 279 278 278 278 279 280 281 283 283 284 285 286 287 288 288 290 292 295 297 296 293 292 293 295 296 295 291 288 289 292
244 242 238 237 236 230 218 209 209 214 218 219 219 220 223 226 226 224 225 228 228 225 224 224 225 226 230 233 237 241 244 247 250 252 254 257 261 263 265 267 269 269 270 271 272 274 277 279 280 281 281 281 280 281 281 280 277 276 276 277 278 279 280 281 281 283 285 286 287 289 289 291 293 294 294 293 291 293 297 297 293 290 288 288 288 290
242 242 239 238 239 237 232 223 212 209 213 213 211 213 216 220 225 228 228 230 230 228 227 231 236 239 240 242 242 241 240 243 247 251 255 260 265 267 267 268 270 272 273 274 274 275 276 278 279 279 279 279 278 277 276 276 276 276 276 277 278 279 280 281 282 284 286 287 287 288 290 291 293 293 293 293 293 294 296 296 293 290 289 289 289 289
238 239 238 239 241 241 240 237 232 230 228 224 218 217 216 215 221 227 230 231 234 236 239 243 247 248 248 247 245 243 243 246 252 256 260 263 266 268 268 270 274 276 276 275 274 273 273 275 277 277 275 275 276 276 275 275 275 275 276 276 278 279 280 282 283 284 285 286 287 288 290 292 293 294 294 294 294 294 293 292 291 290 289 289 290 291
235 235 236 238 241 242 243 243 243 243 245 244 242 239 234 227 224 226 230 234 237 240 243 245 246 247 248 247 246 247 251 255 258 260 262 264 265 267 269 273 278 280 280 278 275 272 271 272 273 273 273 274 275 274 274 273 273 273 274 276 278 280 281 282 284 284 285 285 286 288 290 292 293 294 294 294 294 293 292 290 289 288 287 288 289 289
Height
5879 5880 5882 5884 5888 5890 5892 5894 5896 5896 5898 5900 5902 5902 5902 5902 5904 5906 5909 5912 5913 5914 5915 5916 5916 5915 5916 5917 5918 5919 5919 5920 5920 5920 5920 5920 5921 5920 5920 5920 5919 5920 5920 5920 5921 5921 5921 5922 5922 5922 5922 5922 5922 5922 5922 5923 5923 5923 5923 5923 5923 5923 5924 5924 5924 5923 5923 5923 5923 5923 5923 5922 5922 5922 5921 5921 5921 5921 5921 5921 5920 5920 5920 5919 5919 5918
5876 5877 5880 5885 5889 5891 5892 5894 5894 5895 5896 5899 5900 5901 5902 5901 5902 5904 5907 5910 5912 5914 5915 5915 5915 5915 5915 5916 5917 5918 5919 5919 5919 5919 5919 5919 5919 5919 5919 5919 5919 5919 5920 5920 5920 5920 5920 5921 5921 5921 5921 5922 5922 5922 5922 5922 5922 5922 5922 5922 5922 5923 5923 5923 5923 5923 5923 5923 5923 5922 5922 5922 5922 5922 5921 5921 5921 5921 5921 5921 5920 5920 5919 5919 5918 5918
5873 5876 5881 5885 5888 5889 5890 5891 5892 5893 5895 5897 5898 5900 5901 5901 5901 5903 5905 5908 5910 5912 5913 5914 5914 5914 5915 5915 5916 5917 5917 5918 5918 5917 5918 5918 5918 5918 5918 5918 5918 5918 5919 5919 5919 5919 5919 5920 5920 5921 5921 5921 5921 5922 5922 5922 5922 5922 5922 5922 5922 5922 5922 5922 5922 5922 5922 5922 5922 5922 5922 5922 5922 5922 5922 5922 5921 5921 5921 5920 5920 5919 5919 5918 5917 5917
5872 5876 5881 5883 5885 5885 5887 5889 5890 5891 5893 5894 5896 5899 5901 5900 5900 5902 5905 5906 5908 5909 5911 5912 5913 5913 5914 5914 5915 5916 5916 5916 5916 5917 5917 5917 5917 5917 5917 5917 5917 5918 5918 5918 5918 5918 5919 5919 5920 5920 5920 5921 5921 5921 5921 5922 5922 5921 5922 5922 5922 5922 5922 5922 5922 5922 5922 5922 5922 5922 5922 5922 5922 5922 5921 5921 5921 5920 5920 5919 5919 5918 5918 5917 5917 5916
5872 5876 5879 5880 5882 5883 5884 5886 5887 5889 5891 5893 5895 5898 5899 5900 5900 5901 5903 5905 5906 5907 5908 5910 5910 5911 5912 5913 5914 5915 5915 5915 5915 5915 5916 5916 5916 5916 5916 5916 5916 5917 5917 5918 5918 5918 5918 5918 5919 5919 5919 5920 5920 5920 5920 5921 5921 5921 5921 5921 5922 5922 5922 5922 5922 5922 5922 5922 5922 5922 5922 5922 5922 5921 5921 5920 5920 5919 5919 5919 5918 5917 5917 5916 5916 5916
5871 5875 5876 5877 5879 5880 5881 5883 5885 5887 5890 5891 5893 5897 5898 5898 5899 5900 5900 5902 5903 5904 5906 5908 5908 5909 5910 5911 5912 5913 5914 5914 5914 5914 5914 5915 5915 5915 5915 5915 5915 5916 5916 5917 5917 5917 5918 5918 5918 5918 5918 5919 5919 5919 5919 5920 5920 5921 5921 5921 5921 5922 5922 5922 5922 5922 5922 5922 5922 5921 5921 5921 5921 5921 5920 5920 5919 5919 5919 5918 5918 5917 5916 5915 5914 5914
5868 5871 5873 5874 5876 5878 5878 5880 5883 5886 5888 5890 5893 5896 5897 5897 5897 5898 5899 5900 5901 5903 5905 5905 5905 5906 5907 5908 5910 5910 5911 5912 5912 5913 5913 5913 5913 5913 5913 5914 5914 5914 5915 5915 5916 5916 5917 5917 5917 5917 5917 5917 5918 5918 5918 5918 5919 5919 5920 5920 5920 5921 5921 5921 5921 5921 5921 5921 5920 5920 5920 5920 5920 5920 5919 5919 5918 5918 5918 5917 5916 5915 5914 5913 5912 5911
5866 5868 5869 5870 5872 5874 5875 5878 5882 5884 5886 5889 5893 5895 5895 5896 5896 5897 5897 5898 5899 5901 5901 5901 5902 5903 5904 5907 5907 5908 5909 5910 5911 5911 5911 5911 5912 5912 5912 5913 5913 5913 5913 5914 5914 5914 5915 5915 5915 5915 5916 5916 5916 5916 5916 5917 5917 5918 5918 5918 5919 5919 5919 5919 5920 5920 5919 5919 5919 5919 5919 5919 5918 5918 5917 5917 5917 5916 5916 5915 5913 5912 5911 5911 5910 5909
5865 5866 5867 5868 5869 5870 5873 5878 5881 5883 5885 5889 5893 5894 5894 5895 5895 5895 5896 5896 5897 5897 5897 5898 5900 5900 5902 5905 5905 5905 5907 5908 5909 5910 5910 5910 5910 5910 5911 5911 5912 5912 5912 5912 5912 5912 5912 5913 5913 5913 5914 5914 5914 5914 5915 5915 5916 5916 5916 5916 5916 5917 5917 5917 5918 5918 5918 5917 5917 5917 5917 5917 5916 5916 5915 5915 5914 5914 5913 5912 5911 5910 5909 5908 5907 5906
5861 5863 5864 5866 5867 5869 5874 5878 5880 5881 5885 5889 5890 5890 5892 5892 5892 5893 5893 5894 5894 5893 5893 5897 5898 5897 5899 5902 5903 5904 5905 5906 5907 5908 5908 5909 5909 5909 5910 5910 5911 5911 5910 5910 5910 5910 5910 5910 5910 5911 5911 5912 5912 5912 5913 5913 5914 5914 5914 5914 5914 5915 5915 5915 5915 5915 5915 5915 5915 5915 5915 5914 5913 5913 5912 5912 5911 5911 5910 5909 5908 5907 5905 5905 5904 5904
5855 5858 5859 5861 5864 5868 5873 5876 5877 5880 5884 5887 5886 5887 5889 5889 5889 5890 5890 5891 5890 5888 5891 5895 5897 5896 5895 5898 5900 5902 5903 5905 5906 5907 5907 5907 5908 5908 5908 5909 5909 5910 5909 5909 5909 5908 5908 5907 5908 5908 5909 5909 5909 5910 5910 5911 5912 5912 5912 5912 5912 5913 5913 5913 5913 5913 5913 5913 5913 5912 5912 5911 5911 5910 5910 5909 5908 5907 5906 5905 5904 5903 5902 5902 5901 5901
5848 5851 5853 5856 5861 5865 5869 5872 5874 5877 5881 5882 5882 5884 5885 5885 5886 5886 5886 5887 5885 5885 5890 5895 5895 5893 5892 5895 5899 5901 5902 5903 5903 5905 5906 5906 5907 5907 5907 5907 5908 5908 5908 5908 5907 5907 5906 5905 5905 5906 5906 5906 5907 5908 5908 5909 5910 5910 5910 5910 5911 5911 5910 5910 5910 5910 5910 5910 5909 5909 5909 5908 5908 5908 5907 5906 5905 5904 5903 5902 5901 5900 5899 5899 5898 5898
5842 5846 5849 5852 5856 5860 5864 5866 5869 5872 5875 5876 5877 5880 5881 5881 5882 5882 5882 5882 5881 5884 5890 5893 5892 5889 5889 5893 5897 5898 5900 5901 5901 5903 5904 5905 5905 5906 5906 5906 5906 5907 5907 5907 5906 5906 5905 5904 5903 5903 5904 5904 5905 5906 5906 5907 5908 5908 5909 5909 5909 5908 5908 5908 5908 5908 5908 5907 5907 5906 5906 5906 5905 5905 5904 5903 5902 5901 5901 5900 5899 5898 5897 5896 5895 5894
5837 5841 5845 5848 5851 5855 5859 5861 5863 5866 5869 5871 5873 5875 5876 5877 5878 5877 5878 5879 5880 5884 5888 5890 5889 5886 5887 5892 5895 5896 5899 5899 5900 5900 5901 5903 5903 5904 5905 5904 5905 5905 5905 5905 5905 5904 5904 5903 5903 5902 5902 5903 5903 5904 5904 5905 5905 5906 5906 5906 5906 5906 5906 5906 5906 5906 5905 5904 5904 5904 5903 5903 5903 5903 5902 5900 5899 5899 5898 5897 5896 5895 5894 5893 5892 5891
5832 5835 5840 5844 5847 5851 5855 5858 5861 5865 5868 5870 5872 5873 5873 5873 5874 5875 5877 5878 5880 5884 5885 5886 5884 5882 5886 5892 5894 5895 5897 5897 5898 5898 5899 5900 5900 5901 5902 5902 5903 5904 5904 5903 5903 5903 5903 5902 5902 5901 5901 5901 5901 5902 5902 5903 5903 5903 5904 5904 5903 5903 5903 5904 5904 5903 5903 5902 5902 5901 5901 5901 5900 5900 5899 5898 5897 5895 5894 5894 5893 5892 5891 5890 5890 5889
5826 5831 5839 5842 5844 5850 5854 5856 5860 5862 5865 5867 5869 5869 5868 5870 5873 5876 5876 5878 5880 5881 5880 5881 5880 5880 5885 5889 5891 5893 5894 5895 5895 5895 5896 5897 5897 5899 5899 5900 5901 5902 5902 5902 5901 5901 5901 5901 5900 5900 5899 5899 5899 5899 5900 5900 5900 5900 5901 5901 5901 5901 5901 5901 5901 5901 5900 5900 5900 5899 5899 5899 5898 5897 5896 5895 5894 5892 5891 5890 5889 5888 5888 5888 5888 5886
5821 5828 5836 5839 5840 5846 5850 5853 5857 5859 5860 5863 5863 5863 5865 5869 5873 5874 5874 5875 5876 5876 5875 5876 5877 5878 5882 5885 5887 5890 5891 5892 5893 5893 5894 5895 5895 5896 5897 5898 5899 5900 5900 5900 5900 5900 5900 5899 5899 5898 5897 5897 5897 5897 5897 5897 5897 5897 5897 5898 5898 5898 5899 5899 5899 5898 5898 5898 5898 5898 5897 5896 5896 5895 5893 5892 5891 5889 5888 5887 5886 5886 5886 5885 5884 5883
5819 5825 5831 5833 5836 5841 5846 5849 5853 5855 5857 5858 5859 5861 5865 5868 5869 5870 5870 5870 5871 5871 5870 5872 5875 5877 5878 5881 5885 5887 5888 5890 5890 5891 5892 5892 5893 5894 5895 5897 5898 5898 5898 5898 5898 5897 5897 5897 5897 5896 5895 5895 5894 5894 5894 5894 5894 5894 5895 5895 5896 5896 5897 5897 5896 5896 5896 5896 5896 5895 5895 5895 5894 5892 5890 5889 5888 5887 5887 5885 5884 5884 5883 5883 5881 5879
5815 5819 5825 5828 5831 5836 5841 5844 5845 5849 5852 5853 5856 5860 5862 5863 5864 5865 5865 5865 5866 5867 5867 5869 5871 5873 5875 5878 5882 5885 5886 5888 5888 5889 5890 5891 5892 5893 5894 5895 5896 5896 5896 5896 5896 5895 5895 5895 5894 5894 5893 5892 5892 5891 5891 5891 5891 5892 5893 5893 5894 5894 5894 5894 5894 5894 5894 5894 5893 5893 5893 5892 5891 5889 5887 5886 5886 5885 5884 5883 5882 5880 5880 5879 5878 5876
5809 5813 5818 5823 5826 5829 5833 5834 5835 5841 5845 5847 5851 5853 5855 5858 5860 5861 5862 5862 5864 5865 5865 5866 5867 5867 5871 5876 5879 5882 5884 5886 5887 5888 5889 5890 5891 5892 5893 5894 5894 5894 5894 5894 5894 5893 5893 5893 5892 5891 5891 5890 5890 5889 5889 5889 5889 5890 5891 5891 5892 5892 5892 5893 5893 5892 5892 5891 5891 5890 5890 5889 5888 5886 5885 5884 5883 5882 5880 5879 5878 5876 5876 5875 5874 5873
5805 5806 5811 5817 5820 5821 5824 5826 5830 5837 5840 5841 5844 5846 5848 5853 5855 5857 5858 5859 5861 5862 5862 5863 5862 5864 5869 5874 5877 5880 5882 5883 5885 5887 5888 5888 5889 5890 5891 5892 5892 5893 5893 5892 5892 5892 5891 5891 5890 5889 5888 5888 5887 5887 5887 5888 5888 5889 5889 5890 5890 5890 5890 5891 5890 5890 5889 5888 5888 5888 5888 5886 5885 5884 5883 5882 5880 5878 5877 5875 5874 5872 5871 5871 5870 5869
5799 5800 5805 5810 5812 5815 5820 5825 5830 5834 5836 5838 5841 5843 5846 5850 5852 5853 5853 5854 5857 5858 5859 5860 5859 5862 5867 5871 5875 5878 5880 5881 5883 5885 5886 5887 5887 5888 5889 5889 5890 5891 5891 5890 5890 5890 5890 5889 5888 5887 5886 5885 5885 5885 5885 5886 5886 5887 5887 5888 5888 5888 5888 5888 5887 5887 5886 5885 5886 5886 5885 5884 5883 5881 5880 5879 5876 5874 5873 5871 5869 5868 5867 5866 5866 5865
5795 5796 5799 5803 5807 5812 5818 5821 5824 5828 5832 5835 5837 5840 5844 5846 5848 5849 5849 5851 5855 5855 5856 5857 5857 5859 5864 5868 5872 5875 5877 5880 5881 5882 5883 5884 5885 5885 5886 5887 5887 5888 5889 5888 5888 5888 5888 5887 5886 5885 5884 5883 5882 5882 5883 5883 5884 5885 5885 5885 5885 5885 5885 5884 5884 5883 5883 5882 5884 5884 5883 5881 5880 5878 5875 5875 5873 5870 5869 5868 5865 5864 5863 5862 5862 5860
5790 5791 5793 5798 5803 5808 5812 5815 5817 5820 5825 5827 5830 5834 5838 5840 5843 5846 5847 5851 5853 5852 5854 5855 5854 5856 5862 5866 5870 5872 5874 5877 5878 5879 5880 5882 5882 5883 5883 5884 5885 5886 5886 5886 5886 5886 5885 5885 5884 5883 5882 5882 5881 5881 5882 5882 5883 5883 5884 5883 5883 5883 5882 5881 5881 5880 5879 5880 5882 5882 5879 5877 5875 5873 5871 5870 5868 5866 5865 5862 5860 5858 5857 5857 5857 5856
5783 5785 5788 5793 5797 5800 5803 5805 5808 5812 5816 5820 5824 5828 5832 5836 5840 5843 5845 5848 5847 5847 5851 5852 5850 5854 5860 5863 5867 5870 5872 5874 5876 5876 5878 5879 5880 5880 5881 5882 5882 5883 5884 5884 5883 5883 5883 5883 5882 5881 5881 5881 5881 5881 5881 5881 5881 5882 5882 5882 5881 5881 5880 5879 5878 5877 5877 5878 5878 5877 5875 5872 5870 5868 5866 5866 5864 5862 5860 5857 5855 5854 5852 5851 5851 5850
5780 5781 5784 5787 5789 5792 5795 5798 5803 5808 5812 5815 5819 5823 5827 5831 5835 5838 5841 5842 5841 5843 5847 5847 5848 5853 5858 5860 5864 5867 5869 5871 5872 5873 5874 5876 5876 5877 5878 5879 5879 5880 5881 5881 5881 5881 5881 5881 5880 5880 5879 5879 5879 5879 5880 5880 5880 5880 5880 5880 5879 5878 5877 5876 5875 5875 5875 5874 5873 5871 5869 5867 5866 5864 5862 5860 5859 5858 5856 5853 5850 5849 5848 5846 5845 5844
5776 5777 5780 5783 5786 5790 5796 5801 5806 5809 5810 5813 5817 5821 5824 5828 5831 5834 5836 5836 5838 5841 5842 5844 5848 5852 5855 5858 5862 5863 5865 5867 5869 5870 5871 5872 5873 5874 5875 5876 5876 5877 5878 5878 5878 5878 5878 5878 5878 5878 5878 5878 5877 5878 5878 5878 5878 5878 5878 5877 5876 5875 5874 5873 5873 5872 5871 5870 5869 5866 5863 5862 5861 5860 5857 5855 5855 5854 5852 5848 5846 5845 5843 5841 5840 5839
5773 5773 5776 5780 5784 5789 5795 5801 5805 5806 5808 5811 5816 5819 5822 5825 5828 5830 5830 5832 5837 5838 5838 5842 5847 5849 5852 5856 5859 5860 5862 5864 5866 5867 5868 5870 5871 5872 5872 5873 5873 5874 5874 5874 5875 5875 5875 5875 5875 5876 5876 5876 5876 5876 5876 5876 5876 5876 5875 5875 5873 5872 5872 5871 5870 5869 5868 5867 5865 5863 5859 5857 5856 5855 5851 5850 5851 5850 5847 5845 5842 5840 5839 5838 5837 5836
5771 5772 5774 5777 5780 5785 5791 5796 5799 5801 5804 5807 5811 5815 5818 5821 5823 5825 5828 5831 5834 5834 5836 5842 5845 5845 5849 5854 5856 5858 5860 5861 5863 5864 5865 5867 5868 5868 5869 5869 5870 5871 5871 5872 5872 5872 5872 5872 5872 5873 5873 5873 5873 5874 5874 5874 5873 5873 5873 5872 5870 5870 5869 5869 5867 5866 5865 5864 5862 5860 5857 5854 5852 5849 5846 5845 5846 5844 5841 5839 5838 5837 5836 5836 5834 5832
5769 5771 5773 5775 5777 5781 5785 5789 5793 5796 5799 5802 5805 5809 5813 5817 5819 5822 5825 5828 5830 5831 5835 5839 5840 5842 5847 5850 5853 5855 5856 5858 5860 5861 5862 5863 5864 5865 5866 5866 5867 5868 5868 5868 5868 5868 5869 5869 5869 5870 5870 5870 5870 5871 5870 5870 5870 5870 5869 5868 5867 5867 5866 5865 5864 5863 5862 5861 5860 5857 5855 5853 5850 5846 5842 5839 5838 5837 5835 5832 5832 5834 5834 5833 5831 5829
5766 5770 5772 5773 5774 5776 5780 5785 5788 5790 5793 5796 5800 5804 5808 5811 5814 5817 5820 5823 5825 5827 5831 5834 5835 5838 5843 5847 5849 5851 5852 5854 5856 5857 5859 5860 5861 5862 5863 5863 5864 5864 5864 5864 5864 5864 5865 5865 5866 5866 5867 5867 5867 5866 5866 5866 5866 5866 5865 5864 5864 5863 5862 5861 5860 5859 5859 5858 5856 5854 5851 5850 5847 5843 5839 5836 5832 5830 5828 5826 5827 5830 5829 5828 5827 5825
5764 5767 5769 5770 5770 5771 5776 5780 5783 5786 5789 5789 5792 5798 5802 5805 5808 5812 5816 5819 5821 5824 5827 5828 5829 5834 5839 5843 5845 5847 5849 5850 5852 5854 5855 5857 5858 5859 5859 5860 5861 5861 5861 5860 5860 5861 5861 5862 5862 5863 5863 5863 5863 5862 5863 5862 5862 5862 5861 5860 5859 5858 5858 5857 5856 5855 5854 5853 5851 5849 5847 5845 5843 5840 5837 5833 5829 5826 5824 5823 5824 5824 5824 5823 5823 5821
5761 5763 5764 5765 5764 5767 5772 5776 5780 5783 5782 5780 5785 5792 5797 5800 5804 5808 5811 5814 5817 5820 5821 5823 5826 5832 5837 5839 5840 5843 5845 5847 5849 5850 5852 5853 5854 5855 5856 5857 5857 5857 5857 5857 5857 5858 5858 5859 5859 5859 5859 5859 5859 5858 5858 5858 5858 5858 5857 5856 5855 5854 5853 5852 5851 5850 5849 5847 5846 5844 5842 5840 5839 5836 5833 5830 5827 5824 5821 5820 5820 5820 5819 5819 5818 5817
5758 5759 5759 5759 5760 5764 5770 5773 5775 5775 5772 5775 5783 5789 5792 5796 5800 5804 5807 5810 5813 5815 5817 5820 5825 5829 5832 5834 5836 5839 5841 5843 5845 5847 5848 5849 5850 5852 5853 5853 5853 5853 5853 5853 5854 5855 5855 5855 5855 5855 5855 5855 5854 5854 5854 5854 5853 5853 5853 5852 5851 5850 5849 5847 5846 5845 5844 5843 5841 5839 5837 5836 5834 5832 5829 5826 5825 5822 5818 5816 5816 5815 5814 5814 5813 5813
5753 5754 5755 5756 5758 5763 5767 5769 5769 5767 5769 5776 5783 5785 5788 5793 5797 5801 5804 5806 5809 5812 5814 5818 5822 5824 5827 5830 5833 5835 5837 5839 5841 5842 5844 5845 5846 5847 5848 5849 5849 5849 5850 5850 5851 5851 5851 5851 5851 5851 5850 5850 5849 5849 5849 5849 5849 5848 5848 5847 5846 5845 5844 5843 5842 5841 5839 5838 5836 5834 5833 5831 5829 5826 5824 5822 5821 5818 5814 5812 5813 5812 5811 5810 5809 5808
5749 5751 5752 5754 5756 5760 5763 5765 5764 5765 5770 5776 5778 5781 5786 5790 5793 5796 5799 5802 5805 5808 5811 5815 5818 5820 5823 5826 5828 5831 5833 5834 5836 5838 5839 5840 5841 5842 5844 5845 5845 5845 5846 5846 5846 5847 5847 5846 5846 5845 5845 5845 5845 5845 5844 5844 5844 5843 5843 5841 5840 5839 5838 5837 5837 5836 5835 5833 5831 5830 5828 5826 5824 5822 5819 5816 5815 5814 5811 5810 5810 5809 5808 5806 5805 5804
5744 5747 5748 5750 5754 5757 5760 5762 5763 5766 5769 5771 5774 5778 5782 5785 5789 5792 5795 5799 5802 5806 5808 5811 5814 5816 5819 5822 5825 5827 5829 5830 5831 5833 5834 5835 5836 5838 5839 5840 5840 5841 5841 5842 5842 5842 5842 5841 5841 5841 5841 5840 5840 5840 5840 5840 5839 5838 5837 5836 5835 5834 5834 5833 5832 5831 5830 5828 5826 5825 5824 5822 5820 5818 5815 5812 5810 5809 5809 5807 5806 5805 5804 5803 5802 5801
5739 5742 5744 5747 5751 5754 5758 5759 5761 5764 5765 5768 5772 5776 5779 5782 5785 5789 5792 5795 5799 5802 5805 5807 5810 5812 5815 5817 5820 5822 5824 5825 5827 5828 5830 5831 5832 5834 5835 5835 5835 5836 5837 5837 5837 5836 5836 5836 5836 5836 5836 5836 5836 5836 5836 5835 5834 5834 5833 5832 5831 5830 5829 5828 5827 5826 5825 5823 5822 5820 5819 5818 5817 5814 5811 5808 5805 5804 5803 5803 5801 5800 5800 5799 5798 5796
5735 5739 5741 5744 5747 5750 5754 5756 5759 5761 5764 5767 5770 5773 5776 5779 5781 5786 5790 5792 5794 5798 5801 5803 5807 5809 5810 5813 5815 5817 5819 5820 5822 5824 5826 5827 5828 5829 5830 5830 5831 5832 5832 5832 5831 5831 5831 5831 5831 5831 5831 5831 5831 5831 5831 5830 5830 5829 5829 5827 5827 5825 5824 5823 5822 5821 5819 5818 5817 5816 5814 5813 5812 5810 5808 5806 5802 5799 5797 5796 5795 5795 5795 5794 5793 5792
5731 5734 5737 5739 5742 5746 5750 5753 5756 5759 5761 5765 5768 5770 5773 5776 5778 5783 5787 5787 5791 5795 5798 5801 5804 5806 5807 5809 5812 5813 5814 5816 5818 5820 5821 5823 5824 5824 5825 5826 5826 5827 5827 5826 5826 5826 5826 5827 5826 5826 5826 5826 5826 5826 5826 5826 5825 5824 5823 5822 5821 5820 5819 5818 5817 5816 5815 5813 5812 5811 5810 5808 5807 5806 5804 5802 5799 5795 5792 5790 5789 5790 5790 5790 5789 5788
5728 5731 5734 5736 5739 5743 5747 5750 5753 5756 5759 5763 5765 5767 5770 5773 5775 5780 5784 5786 5789 5793 5795 5798 5801 5802 5804 5806 5808 5810 5811 5812 5814 5815 5817 5818 5819 5820 5820 5821 5821 5822 5822 5823 5823 5822 5822 5822 5822 5821 5820 5821 5821 5820 5820 5820 5820 5819 5817 5816 5815 5814 5813 5812 5811 5810 5809 5808 5807 5806 5805 5804 5802 5801 5800 5798 5795 5790 5787 5787 5786 5786 5786 5785 5785 5784
5726 5728 5731 5734 5736 5740 5744 5747 5751 5754 5756 5759 5762 5764 5767 5769 5773 5777 5782 5784 5787 5789 5792 5794 5797 5798 5801 5802 5803 5805 5806 5807 5809 5810 5811 5813 5814 5815 5816 5816 5817 5818 5819 5819 5819 5818 5818 5818 5817 5815 5815 5815 5815 5815 5815 5815 5814 5812 5811 5809 5808 5807 5806 5806 5805 5805 5804 5803 5802 5801 5800 5799 5798 5796 5795 5793 5790 5786 5783 5783 5782 5781 5781 5781 5780 5780
5724 5725 5727 5731 5734 5737 5740 5744 5747 5749 5752 5755 5758 5760 5763 5766 5770 5774 5778 5781 5783 5785 5787 5790 5792 5794 5796 5796 5797 5798 5800 5802 5805 5806 5807 5809 5810 5811 5811 5812 5812 5813 5814 5814 5813 5812 5812 5812 5811 5811 5810 5810 5810 5810 5810 5809 5807 5806 5804 5803 5802 5801 5801 5800 5799 5799 5798 5797 5796 5795 5794 5793 5792 5791 5790 5789 5786 5782 5779 5778 5777 5777 5777 5777 5776 5776
5721 5723 5725 5728 5730 5733 5737 5740 5743 5746 5748 5751 5753 5756 5759 5763 5767 5770 5773 5776 5779 5781 5782 5784 5786 5788 5790 5791 5792 5793 5795 5798 5800 5801 5802 5803 5804 5805 5805 5806 5806 5807 5808 5808 5807 5806 5807 5807 5807 5807 5806 5806 5805 5804 5804 5803 5801 5799 5798 5797 5796 5796 5795 5794 5794 5793 5792 5791 5791 5790 5789 5788 5788 5787 5787 5785 5781 5776 5774 5773 5773 5772 5773 5773 5772 5771
5718 5722 5723 5725 5727 5728 5732 5736 5740 5743 5745 5747 5750 5752 5755 5759 5762 5765 5768 5770 5773 5775 5777 5779 5781 5782 5785 5786 5788 5789 5791 5793 5794 5795 5796 5797 5798 5799 5800 5800 5801 5801 5802 5802 5802 5802 5802 5802 5802 5802 5802 5801 5800 5798 5797 5796 5795 5793 5792 5791 5791 5790 5789 5789 5788 5787 5787 5786 5785 5785 5784 5784 5783 5783 5782 5781 5777 5772 5770 5768 5768 5768 5768 5768 5768 5767
5713 5717 5720 5722 5723 5725 5728 5731 5735 5738 5741 5743 5746 5748 5751 5754 5757 5760 5763 5765 5767 5769 5772 5774 5776 5778 5780 5783 5784 5786 5787 5789 5790 5791 5792 5793 5794 5794 5795 5796 5797 5797 5798 5798 5798 5797 5797 5797 5797 5796 5796 5795 5794 5793 5791 5790 5789 5788 5787 5787 5786 5785 5784 5783 5783 5782 5781 5781 5781 5781 5780 5780 5779 5778 5777 5776 5773 5769 5766 5765 5764 5763 5763 5764 5763 5762
5708 5711 5715 5717 5720 5723 5725 5727 5730 5733 5735 5738 5742 5744 5746 5749 5753 5755 5757 5759 5762 5764 5767 5769 5771 5772 5775 5777 5780 5782 5783 5785 5786 5787 5788 5788 5789 5790 5791 5792 5793 5793 5793 5792 5791 5791 5791 5791 5791 5790 5790 5790 5788 5787 5785 5784 5783 5783 5783 5782 5781 5780 5779 5778 5778 5777 5777 5776 5776 5776 5776 5775 5774 5773 5772 5771 5769 5766 5763 5762 5760 5759 5759 5759 5758 5757
5703 5706 5710 5714 5718 5720 5721 5722 5725 5728 5731 5735 5737 5739 5741 5745 5748 5750 5753 5755 5757 5759 5762 5764 5765 5767 5769 5771 5773 5776 5777 5779 5780 5781 5782 5782 5783 5784 5785 5786 5786 5786 5785 5785 5785 5785 5785 5785 5784 5784 5784 5783 5782 5781 5780 5779 5779 5778 5778 5777 5776 5775 5774 5773 5773 5772 5772 5771 5771 5770 5770 5770 5769 5768 5767 5766 5764 5762 5760 5758 5757 5755 5755 5754 5753 5751
5700 5703 5707 5711 5714 5716 5718 5720 5723 5725 5728 5731 5734 5735 5737 5741 5743 5746 5749 5751 5752 5755 5757 5760 5762 5763 5765 5767 5768 5769 5770 5771 5773 5774 5775 5777 5778 5779 5780 5780 5780 5779 5778 5778 5778 5778 5778 5778 5778 5778 5777 5776 5776 5775 5775 5774 5774 5773 5773 5772 5770 5769 5769 5768 5768 5767 5767 5766 5765 5765 5764 5763 5763 5762 5762 5760 5758 5756 5754 5753 5752 5751 5749 5748 5746 5745
5696 5699 5702 5706 5709 5712 5715 5718 5720 5722 5723 5726 5729 5731 5733 5736 5739 5742 5745 5747 5749 5750 5752 5755 5757 5758 5760 5761 5762 5763 5765 5766 5767 5768 5769 5771 5773 5773 5774 5774 5774 5773 5772 5772 5772 5771 5772 5772 5772 5772 5772 5771 5771 5770 5769 5769 5768 5768 5767 5766 5764 5764 5763 5762 5762 5762 5762 5761 5760 5759 5758 5757 5756 5756 5755 5754 5752 5750 5748 5747 5746 5744 5743 5741 5739 5738
5691 5694 5698 5702 5705 5708 5711 5713 5715 5718 5719 5721 5724 5726 5729 5733 5736 5739 5741 5743 5745 5747 5748 5751 5752 5753 5755 5756 5757 5759 5760 5761 5762 5763 5764 5765 5766 5767 5767 5768 5767 5767 5766 5766 5766 5766 5766 5766 5766 5767 5767 5766 5766 5765 5764 5763 5763 5762 5761 5759 5758 5758 5757 5757 5757 5756 5756 5755 5754 5753 5752 5751 5749 5748 5747 5746 5745 5743 5741 5740 5739 5738 5736 5735 5733 5732